Weather History for Renton, WA

Change the Weather History Date:

Monday, March 25, 2013

  Actual Average Record
Temperature  
Mean Temperature 48 °F -  
Max Temperature 61 °F 53 °F 66 °F (1997)
Min Temperature 36 °F 40 °F 32 °F (2008)
Degree Days  
Heating Degree Days 16    
Moisture  
Dew Point 32 °F    
Average Humidity 56    
Maximum Humidity 89    
Minimum Humidity 30    
Precipitation  
Precipitation 0.00 in - - ()
Sea Level Pressure  
Sea Level Pressure 30.04 in    
Wind  
Wind Speed 4 mph (NW)    
Max Wind Speed 10 mph    
Max Gust Speed -    
Visibility 10 miles    
Events      
Averages and records for this station are not official NWS values.
T = Trace of Precipitation, MM = Missing Value Source: NWS Daily Summary

Daily Weather History Graph

Daily Weather History Graph

Search for Another Location

Airport:

Trip Planner

Search our weather history database for the weather conditions in past years. The results will help you decide how hot, cold, wet, or windy it might be!

Date:

Astronomy

Mar. 25, 2013 Rise Set
Actual Time 7:00 AM PDT 7:29 PM PDT
Civil Twilight 6:30 AM PDT 8:00 PM PDT
Nautical Twilight 5:53 AM PDT 8:36 PM PDT
Astronomical Twilight 5:15 AM PDT 9:14 PM PDT
Moon 6:03 PM PDT 5:52 AM PDT
Length of Visible Light 13h 29m
Length of Day
12h 28m
Waxing Gibbous, 97% of the Moon is Illuminated
Mar 25
Waxing Gibbous
Mar 27
Full
Apr 2
Last Quarter
Apr 10
New
Apr 18
First Quarter

Hourly Weather History & Observations

Time (PDT) Temp. Windchill Dew Point Humidity Pressure Visibility Wind Dir Wind Speed Gust Speed Precip Events Conditions
12:53 AM 45.0 °F 43.5 °F 34.0 °F 65% 30.14 in 10.0 mi NW 3.5 mph - N/A   Overcast
1:53 AM 42.1 °F - 34.0 °F 73% 30.13 in 10.0 mi Calm Calm - N/A   Partly Cloudy
2:53 AM 39.9 °F - 33.1 °F 77% 30.12 in 10.0 mi Calm Calm - N/A   Clear
3:53 AM 37.9 °F 33.5 °F 32.0 °F 79% 30.11 in 10.0 mi WNW 5.8 mph - N/A   Clear
4:53 AM 37.0 °F 33.3 °F 33.1 °F 86% 30.11 in 10.0 mi NW 4.6 mph - N/A   Clear
5:53 AM 36.0 °F - 33.1 °F 89% 30.11 in 10.0 mi Calm Calm - N/A   Clear
6:53 AM 37.0 °F - 32.0 °F 82% 30.10 in 10.0 mi Calm Calm - N/A   Clear
7:53 AM 37.0 °F 34.5 °F 30.9 °F 79% 30.10 in 10.0 mi NW 3.5 mph - N/A   Clear
8:53 AM 41.0 °F 38.0 °F 33.1 °F 73% 30.10 in 10.0 mi North 4.6 mph - N/A   Clear
9:53 AM 44.1 °F 40.1 °F 34.0 °F 68% 30.09 in 10.0 mi NNW 6.9 mph - N/A   Clear
10:53 AM 48.9 °F - 30.0 °F 48% 30.08 in 10.0 mi NW 8.1 mph - N/A   Clear
11:53 AM 53.1 °F - 28.0 °F 38% 30.06 in 10.0 mi NW 8.1 mph - N/A   Clear
12:53 PM 55.9 °F - 27.0 °F 33% 30.04 in 10.0 mi NW 5.8 mph - N/A   Clear
1:53 PM 57.9 °F - 28.9 °F 33% 30.02 in 10.0 mi NW 8.1 mph - N/A   Clear
2:53 PM 59.0 °F - 30.0 °F 33% 29.99 in 10.0 mi NW 8.1 mph - N/A   Clear
3:53 PM 60.1 °F - 28.9 °F 31% 29.98 in 10.0 mi NW 9.2 mph - N/A   Clear
4:53 PM 61.0 °F - 28.9 °F 30% 29.96 in 10.0 mi NW 10.4 mph - N/A   Scattered Clouds
5:53 PM 59.0 °F - 30.0 °F 33% 29.95 in 10.0 mi NW 10.4 mph - N/A   Overcast
6:53 PM 57.9 °F - 30.0 °F 35% 29.95 in 10.0 mi NW 8.1 mph - N/A   Partly Cloudy
7:53 PM 53.1 °F - 35.1 °F 50% 29.96 in 10.0 mi NW 3.5 mph - N/A   Overcast
8:53 PM 54.0 °F - 33.1 °F 45% 29.97 in 10.0 mi NW 6.9 mph - N/A   Overcast
9:53 PM 53.1 °F - 32.0 °F 45% 29.97 in 10.0 mi NW 8.1 mph - N/A   Overcast
10:53 PM 51.1 °F - 36.0 °F 56% 29.98 in 10.0 mi NW 6.9 mph - N/A   Overcast
11:53 PM 48.9 °F - 36.0 °F 61% 29.99 in 10.0 mi Calm Calm - N/A   Mostly Cloudy